Flag for Germany Weather past 2 weeks in Peine, Lower Saxony, Germany

Now
41 °F

Clear.


Feels Like: 37 °F
Forecast: 37 / 46 °F
Wind: 6 mph from West

Location: Braunschweig

Current Time: Mar 5, 2015 at 8:56:16 PM

Latest Report: Mar 5, 2015 at 6:50 PM


Visibility: 10 mi

Pressure: 30.57 "Hg

Humidity: 81%

Dew point: 36 °F

Location of PeineLocation

Historic Weather in Peine — Graph

°F

Peine temperature yesterday

Maximum temperature yesterday: 43 °F (at 12:20 PM)
Minimum temperature yesterday: 34 °F (at 5:50 AM)
Average temperature yesterday: 39 °F

Past Weeks' High & Low Weather Summary

 TemperatureHumidityPressure
High52 °F (Feb 26, 3:20 PM)100% (Feb 19, 6:50 AM)30.60 "Hg (Feb 19, 6:50 AM)
Low27 °F (Feb 26, 6:50 AM)47% (Feb 26, 3:20 PM)29.33 "Hg (Feb 21, 9:50 AM)
Average41 °F80%29.90 "Hg
* Reported Feb 18 6:20 PM — Mar 5 6:50 PM, Peine, Weather by CustomWeather, © 2015

Note: Actual official high and low records may vary slightly from our data, if they occured in-between our weather recording intervals... More about our weather records

Advertising

Peine weather history for previous 24 hours

 ConditionsComfort  
Time TempWeatherWind HumidityBarometerVisibility
6:50 PM
Thu, Mar 5
41 °FClear.6 mph81%30.57 "Hg10 mi
6:20 PM41 °FClear.6 mph76%30.54 "Hg10 mi
5:50 PM43 °FScattered clouds.7 mph71%30.54 "HgN/A
5:20 PM45 °FPassing clouds.10 mph66%30.54 "HgN/A
4:50 PM45 °FScattered clouds.10 mph71%30.54 "HgN/A
4:20 PM45 °FPartly sunny.13 mph71%30.54 "HgN/A
3:50 PM45 °FCloudy.12 mph66%30.54 "HgN/A
3:20 PM45 °FOvercast.12 mph76%30.54 "HgN/A
2:50 PM43 °FPartly sunny.10 mph81%30.54 "HgN/A
2:20 PM43 °FBroken clouds.10 mph87%30.54 "HgN/A
1:50 PM43 °FBroken clouds.12 mph87%30.54 "HgN/A
1:20 PM43 °FBroken clouds.10 mph87%30.54 "HgN/A
12:50 PM43 °FBroken clouds.12 mph87%30.54 "HgN/A
12:20 PM43 °FBroken clouds.9 mph87%30.54 "HgN/A
11:50 AM41 °FBroken clouds.9 mph93%30.54 "HgN/A
11:20 AM41 °FBroken clouds.10 mph93%30.54 "HgN/A
10:50 AM41 °FMore clouds than sun.10 mph93%30.54 "HgN/A
10:20 AM39 °FMore clouds than sun.10 mph100%30.54 "HgN/A
9:50 AM39 °FPartly sunny.8 mph100%30.54 "HgN/A
9:20 AM37 °FMostly cloudy.8 mph100%30.54 "HgN/A
8:50 AM37 °FLow clouds.8 mph100%30.51 "HgN/A
8:20 AM37 °FMostly cloudy.7 mph100%30.51 "HgN/A
7:50 AM36 °FBroken clouds.8 mph100%30.51 "HgN/A
7:20 AM36 °FBroken clouds.8 mph100%30.51 "HgN/A
6:50 AM34 °FPassing clouds.7 mph100%30.48 "HgN/A
11:20 PM
Wed, Mar 4
39 °FLight rain. Partly cloudy.12 mph100%30.24 "HgN/A
9:20 PM37 °FOvercast.12 mph100%30.21 "HgN/A
8:50 PM37 °FOvercast.10 mph100%30.21 "HgN/A
8:20 PM37 °FMostly cloudy.12 mph100%30.18 "HgN/A
Weather by CustomWeather, © 2015

See weather overviewHow to use our weather pages